Time,TemperatureF,DewpointF,PressureIn,WindDirection,WindDirectionDegrees,WindSpeedMPH,WindSpeedGustMPH,Humidity,HourlyPrecipIn,Conditions,Clouds,dailyrainin,SoftwareType,DateUTC
2013-04-17 00:03:00,50.2,42.0,30.26,NE,37,5.4,5.4,74,0.00,,OVC030,0.00,VWS V14.01,2013-04-17 05:03:00,
2013-04-17 00:08:00,50.2,42.0,30.26,NE,49,0.0,8.7,74,0.00,,OVC030,0.00,VWS V14.01,2013-04-17 05:08:00,
2013-04-17 00:13:00,49.8,41.7,30.26,NNE,19,8.3,12.3,74,0.00,,OVC030,0.00,VWS V14.01,2013-04-17 05:13:00,
2013-04-17 00:18:00,49.6,41.5,30.26,NE,51,5.4,8.1,74,0.00,,OVC030,0.00,VWS V14.01,2013-04-17 05:18:00,
2013-04-17 00:23:00,49.3,41.2,30.26,NE,54,8.7,8.7,74,0.00,,OVC030,0.00,VWS V14.01,2013-04-17 05:23:00,
2013-04-17 00:28:00,48.9,40.8,30.26,ENE,70,3.6,9.2,74,0.00,,OVC030,0.00,VWS V14.01,2013-04-17 05:28:00,
2013-04-17 00:33:00,48.7,40.7,30.29,SE,124,6.7,8.3,74,0.00,,OVC030,0.00,VWS V14.01,2013-04-17 05:33:00,
2013-04-17 00:38:00,48.7,40.7,30.29,ENE,77,3.1,6.7,74,0.00,,OVC030,0.00,VWS V14.01,2013-04-17 05:38:00,
2013-04-17 00:44:00,48.6,40.5,30.29,NE,47,4.9,8.7,74,0.00,,OVC028,0.00,VWS V14.01,2013-04-17 05:44:00,
2013-04-17 00:49:00,48.4,40.3,30.29,NNE,12,4.9,7.6,74,0.00,,OVC028,0.00,VWS V14.01,2013-04-17 05:49:00,
2013-04-17 00:54:00,48.2,40.1,30.29,ESE,102,5.8,5.8,74,0.00,,OVC028,0.00,VWS V14.01,2013-04-17 05:54:00,
2013-04-17 00:59:00,48.0,41.2,30.29,NNE,27,4.0,11.9,77,0.00,,OVC028,0.00,VWS V14.01,2013-04-17 05:59:00,
2013-04-17 01:04:00,47.8,41.0,30.29,ESE,103,4.0,10.1,77,0.00,,OVC028,0.00,VWS V14.01,2013-04-17 06:04:00,
2013-04-17 01:09:00,47.5,40.6,30.29,NE,55,8.7,8.7,77,0.00,,OVC028,0.00,VWS V14.01,2013-04-17 06:09:00,
2013-04-17 01:14:00,47.3,40.5,30.29,NE,49,4.9,10.1,77,0.00,,OVC028,0.00,VWS V14.01,2013-04-17 06:14:00,
2013-04-17 01:19:00,47.3,40.5,30.29,East,79,4.0,11.0,77,0.00,,OVC028,0.00,VWS V14.01,2013-04-17 06:19:00,
2013-04-17 01:24:00,47.1,40.3,30.29,ENE,58,3.6,10.5,77,0.00,,OVC030,0.00,VWS V14.01,2013-04-17 06:24:00,
2013-04-17 01:29:00,47.1,40.3,30.29,ENE,68,3.1,10.5,77,0.00,,OVC030,0.00,VWS V14.01,2013-04-17 06:29:00,
2013-04-17 01:35:00,46.9,40.1,30.29,ENE,70,8.3,8.7,77,0.00,,OVC030,0.00,VWS V14.01,2013-04-17 06:35:00,
2013-04-17 01:40:00,46.9,40.1,30.29,ENE,57,6.3,11.4,77,0.00,,OVC030,0.00,VWS V14.01,2013-04-17 06:40:00,
2013-04-17 01:45:00,46.9,40.1,30.29,NE,40,7.6,9.6,77,0.00,,OVC030,0.00,VWS V14.01,2013-04-17 06:45:00,
2013-04-17 01:50:00,46.9,40.1,30.29,NE,48,2.7,3.6,77,0.00,,OVC030,0.00,VWS V14.01,2013-04-17 06:50:00,
2013-04-17 01:55:00,46.8,39.9,30.29,NNE,29,8.7,8.7,77,0.00,,OVC030,0.00,VWS V14.01,2013-04-17 06:55:00,
2013-04-17 02:00:00,46.6,39.8,30.29,NE,48,4.0,4.0,77,0.00,,OVC030,0.00,VWS V14.01,2013-04-17 07:00:00,
2013-04-17 02:05:00,46.6,39.8,30.26,East,96,4.9,5.4,77,0.00,,OVC030,0.00,VWS V14.01,2013-04-17 07:05:00,
2013-04-17 02:10:00,46.4,39.6,30.26,ENE,59,8.1,8.1,77,0.00,,OVC030,0.00,VWS V14.01,2013-04-17 07:10:00,
2013-04-17 02:15:00,46.4,39.6,30.26,NE,43,5.4,7.6,77,0.00,,OVC030,0.00,VWS V14.01,2013-04-17 07:15:00,
2013-04-17 02:20:00,46.4,39.6,30.29,North,3,0.0,0.0,77,0.00,,OVC030,0.00,VWS V14.01,2013-04-17 07:20:00,
2013-04-17 02:25:00,46.2,39.4,30.29,ENE,59,7.6,8.7,77,0.00,,OVC030,0.00,VWS V14.01,2013-04-17 07:25:00,
2013-04-17 02:30:00,46.2,39.4,30.29,NE,45,0.0,3.6,77,0.00,,OVC030,0.00,VWS V14.01,2013-04-17 07:30:00,
2013-04-17 02:35:00,46.2,39.4,30.26,NNE,23,6.7,6.7,77,0.00,,OVC030,0.00,VWS V14.01,2013-04-17 07:35:00,
2013-04-17 02:41:00,46.0,39.2,30.26,ENE,75,8.1,8.1,77,0.00,,OVC030,0.00,VWS V14.01,2013-04-17 07:41:00,
2013-04-17 02:46:00,45.9,39.1,30.26,NE,52,5.4,5.4,77,0.00,,OVC028,0.00,VWS V14.01,2013-04-17 07:46:00,
2013-04-17 02:51:00,45.9,39.1,30.26,North,9,5.8,7.6,77,0.00,,OVC028,0.00,VWS V14.01,2013-04-17 07:51:00,
2013-04-17 02:56:00,45.9,39.1,30.26,North,8,5.8,5.8,77,0.00,,OVC028,0.00,VWS V14.01,2013-04-17 07:56:00,
2013-04-17 03:01:00,45.9,39.1,30.26,ENE,57,3.6,6.3,77,0.00,,OVC028,0.00,VWS V14.01,2013-04-17 08:01:00,
2013-04-17 03:06:00,45.9,39.1,30.26,NE,49,0.0,7.6,77,0.00,,OVC026,0.00,VWS V14.01,2013-04-17 08:06:00,
2013-04-17 03:11:00,45.7,38.9,30.26,ENE,58,3.6,7.6,77,0.00,,OVC026,0.00,VWS V14.01,2013-04-17 08:11:00,
2013-04-17 03:16:00,45.9,39.1,30.26,NNE,29,3.1,8.3,77,0.00,,OVC026,0.00,VWS V14.01,2013-04-17 08:16:00,
2013-04-17 03:21:00,45.7,38.9,30.26,NE,47,2.7,10.1,77,0.00,,OVC026,0.00,VWS V14.01,2013-04-17 08:21:00,
2013-04-17 03:26:00,45.7,38.9,30.26,NE,55,5.8,6.3,77,0.00,,OVC026,0.00,VWS V14.01,2013-04-17 08:26:00,
2013-04-17 03:32:00,45.7,38.9,30.26,North,10,5.4,6.3,77,0.00,,OVC026,0.00,VWS V14.01,2013-04-17 08:32:00,
2013-04-17 03:37:00,45.7,38.9,30.26,NE,35,5.8,8.3,77,0.00,,OVC026,0.00,VWS V14.01,2013-04-17 08:37:00,
2013-04-17 03:42:00,45.5,38.7,30.26,ENE,78,2.7,8.1,77,0.00,,RA,0.00,VWS V14.01,2013-04-17 08:42:00,
2013-04-17 03:47:00,45.5,38.7,30.26,NE,48,0.0,6.3,77,0.00,,RA,0.00,VWS V14.01,2013-04-17 08:47:00,
2013-04-17 03:52:00,45.5,38.7,30.26,NE,42,4.0,8.7,77,0.00,,RA,0.00,VWS V14.01,2013-04-17 08:52:00,
2013-04-17 03:57:00,45.5,38.7,30.26,North,1,2.7,10.1,77,0.00,,RA,0.00,VWS V14.01,2013-04-17 08:57:00,
2013-04-17 04:02:00,45.5,38.7,30.23,NNE,21,3.1,6.3,77,0.00,,OVC024,0.00,VWS V14.01,2013-04-17 09:02:00,
2013-04-17 04:07:00,45.3,38.5,30.23,NE,49,4.0,8.3,77,0.00,,OVC024,0.00,VWS V14.01,2013-04-17 09:07:00,
2013-04-17 04:12:00,45.3,38.5,30.23,NE,56,5.8,11.4,77,0.00,,OVC024,0.00,VWS V14.01,2013-04-17 09:12:00,
2013-04-17 04:17:00,45.3,38.5,30.23,NNW,343,3.1,5.8,77,0.00,,OVC024,0.00,VWS V14.01,2013-04-17 09:17:00,
2013-04-17 04:22:00,45.3,38.5,30.23,NNE,19,2.7,10.5,77,0.00,,OVC024,0.00,VWS V14.01,2013-04-17 09:22:00,
2013-04-17 04:27:00,45.3,38.5,30.23,ENE,69,6.3,8.3,77,0.00,,OVC024,0.00,VWS V14.01,2013-04-17 09:27:00,
2013-04-17 04:33:00,45.1,38.4,30.23,NE,50,8.7,8.7,77,0.00,,OVC024,0.00,VWS V14.01,2013-04-17 09:33:00,
2013-04-17 04:38:00,45.1,38.4,30.23,ESE,122,4.5,10.1,77,0.00,,OVC024,0.00,VWS V14.01,2013-04-17 09:38:00,
2013-04-17 04:43:00,45.1,38.4,30.23,NE,38,4.0,10.1,77,0.00,,OVC024,0.00,VWS V14.01,2013-04-17 09:43:00,
2013-04-17 04:48:00,45.1,38.4,30.23,NE,49,5.8,11.0,77,0.00,,OVC024,0.00,VWS V14.01,2013-04-17 09:48:00,
2013-04-17 04:53:00,45.1,38.4,30.23,North,0,3.1,6.3,77,0.00,,OVC024,0.00,VWS V14.01,2013-04-17 09:53:00,
2013-04-17 04:58:00,45.1,38.4,30.23,NE,48,3.6,8.7,77,0.00,,OVC024,0.00,VWS V14.01,2013-04-17 09:58:00,
2013-04-17 05:03:00,45.1,38.4,30.23,ESE,106,5.4,8.7,77,0.00,,OVC024,0.00,VWS V14.01,2013-04-17 10:03:00,
2013-04-17 05:08:00,45.0,38.2,30.23,ENE,60,2.7,11.0,77,0.00,,OVC024,0.00,VWS V14.01,2013-04-17 10:08:00,
2013-04-17 05:13:00,45.0,38.2,30.23,North,357,3.1,8.1,77,0.00,,OVC024,0.00,VWS V14.01,2013-04-17 10:13:00,
2013-04-17 05:18:00,45.0,38.2,30.23,East,88,3.1,8.1,77,0.00,,OVC024,0.00,VWS V14.01,2013-04-17 10:18:00,
2013-04-17 05:23:00,45.1,38.4,30.23,ENE,72,4.0,13.2,77,0.00,,OVC022,0.00,VWS V14.01,2013-04-17 10:23:00,
2013-04-17 05:28:00,45.1,38.4,30.23,NE,43,10.5,10.5,77,0.00,,OVC022,0.00,VWS V14.01,2013-04-17 10:28:00,
2013-04-17 05:34:00,45.1,38.4,30.23,ENE,61,0.0,8.1,77,0.00,,OVC022,0.00,VWS V14.01,2013-04-17 10:34:00,
2013-04-17 05:39:00,45.1,38.4,30.23,NE,37,2.2,8.1,77,0.00,,OVC022,0.00,VWS V14.01,2013-04-17 10:39:00,
2013-04-17 05:44:00,45.0,38.2,30.23,SSE,150,8.1,8.1,77,0.00,,OVC022,0.00,VWS V14.01,2013-04-17 10:44:00,
2013-04-17 05:49:00,45.0,38.2,30.20,North,7,8.7,11.0,77,0.00,,OVC022,0.00,VWS V14.01,2013-04-17 10:49:00,
2013-04-17 05:54:00,44.8,38.0,30.20,ENE,60,4.0,13.6,77,0.00,,OVC022,0.00,VWS V14.01,2013-04-17 10:54:00,
2013-04-17 05:59:00,44.8,38.0,30.20,NE,45,3.1,8.3,77,0.00,,OVC022,0.00,VWS V14.01,2013-04-17 10:59:00,
2013-04-17 06:04:00,44.8,38.0,30.23,NE,47,5.8,17.0,77,0.00,,OVC022,0.00,VWS V14.01,2013-04-17 11:04:00,
2013-04-17 06:09:00,44.8,38.0,30.23,NNE,24,6.7,14.5,77,0.00,,OVC022,0.00,VWS V14.01,2013-04-17 11:09:00,
2013-04-17 06:14:00,44.8,38.0,30.23,North,11,10.1,12.8,77,0.00,,OVC022,0.00,VWS V14.01,2013-04-17 11:14:00,
2013-04-17 06:19:00,44.8,38.0,30.20,NNE,33,2.7,10.5,77,0.00,,OVC022,0.00,VWS V14.01,2013-04-17 11:19:00,
2013-04-17 06:24:00,44.8,38.0,30.20,ESE,109,3.1,11.0,77,0.00,,OVC022,0.00,VWS V14.01,2013-04-17 11:24:00,
2013-04-17 06:29:00,44.8,38.0,30.20,ENE,68,8.7,8.7,77,0.00,,OVC022,0.00,VWS V14.01,2013-04-17 11:29:00,
2013-04-17 06:34:00,45.0,38.2,30.20,NE,46,8.3,11.4,77,0.00,,OVC022,0.00,VWS V14.01,2013-04-17 11:34:00,
2013-04-17 06:39:00,45.0,38.2,30.20,North,10,8.7,11.0,77,0.00,,OVC022,0.00,VWS V14.01,2013-04-17 11:39:00,
2013-04-17 06:44:00,45.0,38.2,30.20,NE,47,4.9,11.0,77,0.00,,OVC015,0.00,VWS V14.01,2013-04-17 11:44:00,
2013-04-17 06:49:00,45.1,38.4,30.20,NE,43,6.3,17.0,77,0.00,,OVC015,0.00,VWS V14.01,2013-04-17 11:49:00,
2013-04-17 06:55:00,45.1,38.4,30.20,NNE,29,5.4,11.0,77,0.00,,OVC015,0.00,VWS V14.01,2013-04-17 11:55:00,
2013-04-17 07:00:00,45.1,38.4,30.20,NE,50,5.4,10.1,77,0.00,,OVC015,0.00,VWS V14.01,2013-04-17 12:00:00,
2013-04-17 07:05:00,45.1,38.4,30.20,ENE,69,4.0,5.8,77,0.00,,OVC017,0.00,VWS V14.01,2013-04-17 12:05:00,
2013-04-17 07:10:00,45.3,38.5,30.20,NE,40,0.0,7.6,77,0.00,,OVC017,0.00,VWS V14.01,2013-04-17 12:10:00,
2013-04-17 07:15:00,45.3,38.5,30.20,NNE,17,10.5,10.5,77,0.00,,OVC017,0.00,VWS V14.01,2013-04-17 12:15:00,
2013-04-17 07:20:00,45.3,38.5,30.23,NE,54,8.1,10.5,77,0.00,,OVC017,0.00,VWS V14.01,2013-04-17 12:20:00,
2013-04-17 07:25:00,45.5,38.7,30.23,East,97,5.8,5.8,77,0.00,,OVC017,0.00,VWS V14.01,2013-04-17 12:25:00,
2013-04-17 07:30:00,45.5,38.7,30.23,ENE,77,5.8,5.8,77,0.00,,OVC017,0.00,VWS V14.01,2013-04-17 12:30:00,
2013-04-17 07:35:00,45.5,38.7,30.23,NE,37,5.8,6.3,77,0.00,,OVC017,0.00,VWS V14.01,2013-04-17 12:35:00,
2013-04-17 07:40:00,45.5,38.7,30.23,ENE,70,5.4,5.4,77,0.00,,OVC014,0.00,VWS V14.01,2013-04-17 12:40:00,
2013-04-17 07:45:00,45.5,38.7,30.23,NE,49,4.5,5.8,77,0.00,,OVC014,0.00,VWS V14.01,2013-04-17 12:45:00,
2013-04-17 07:50:00,45.5,38.7,30.23,ENE,63,6.3,6.3,77,0.00,,OVC014,0.00,VWS V14.01,2013-04-17 12:50:00,
2013-04-17 07:55:00,45.5,38.7,30.23,NE,39,3.1,7.6,77,0.00,,OVC014,0.00,VWS V14.01,2013-04-17 12:55:00,
2013-04-17 08:00:00,45.3,38.5,30.20,ESE,117,5.8,5.8,77,0.00,,OVC012,0.00,VWS V14.01,2013-04-17 13:00:00,
2013-04-17 08:06:00,45.3,38.5,30.20,ENE,67,10.5,11.9,77,0.00,,OVC012,0.00,VWS V14.01,2013-04-17 13:06:00,
2013-04-17 08:11:00,45.1,38.4,30.20,East,83,2.7,10.5,77,0.00,,OVC012,0.00,VWS V14.01,2013-04-17 13:11:00,
2013-04-17 08:16:00,45.3,38.5,30.20,NE,54,5.4,10.1,77,0.00,,OVC012,0.00,VWS V14.01,2013-04-17 13:16:00,
2013-04-17 08:21:00,45.3,38.5,30.20,NE,52,9.2,10.1,77,0.00,,OVC012,0.00,VWS V14.01,2013-04-17 13:21:00,
2013-04-17 08:26:00,45.5,38.7,30.20,NNE,18,4.0,8.7,77,0.00,,OVC012,0.00,VWS V14.01,2013-04-17 13:26:00,
2013-04-17 08:31:00,45.5,38.7,30.17,NE,42,3.1,15.4,77,0.00,,OVC012,0.00,VWS V14.01,2013-04-17 13:31:00,
2013-04-17 08:37:00,45.7,38.9,30.17,NE,56,11.4,11.4,77,0.00,,OVC012,0.00,VWS V14.01,2013-04-17 13:37:00,
2013-04-17 08:42:00,45.9,39.1,30.17,ESE,106,8.3,8.3,77,0.00,,OVC012,0.00,VWS V14.01,2013-04-17 13:42:00,
2013-04-17 08:47:00,45.9,39.1,30.17,East,79,6.3,8.3,77,0.00,,OVC012,0.00,VWS V14.01,2013-04-17 13:47:00,
2013-04-17 08:52:00,46.0,39.2,30.17,NE,38,6.3,10.5,77,0.00,,OVC012,0.00,VWS V14.01,2013-04-17 13:52:00,
2013-04-17 08:57:00,46.2,39.4,30.17,NE,49,10.5,10.5,77,0.00,,OVC012,0.00,VWS V14.01,2013-04-17 13:57:00,
2013-04-17 09:02:00,46.2,39.4,30.14,ESE,111,3.6,11.0,77,0.00,,OVC012,0.00,VWS V14.01,2013-04-17 14:02:00,
2013-04-17 09:07:00,46.2,39.4,30.14,NE,39,10.1,10.1,77,0.00,,OVC012,0.00,VWS V14.01,2013-04-17 14:07:00,
2013-04-17 09:12:00,46.4,39.6,30.14,ENE,61,4.0,10.1,77,0.00,,OVC012,0.00,VWS V14.01,2013-04-17 14:12:00,
2013-04-17 09:17:00,46.4,39.6,30.14,North,6,4.0,5.4,77,0.00,,OVC012,0.00,VWS V14.01,2013-04-17 14:17:00,
2013-04-17 09:22:00,46.4,39.6,30.14,East,93,4.0,10.1,77,0.00,,OVC010,0.00,VWS V14.01,2013-04-17 14:22:00,
2013-04-17 09:27:00,46.6,39.8,30.14,SE,136,5.4,12.3,77,0.00,,OVC010,0.00,VWS V14.01,2013-04-17 14:27:00,
2013-04-17 09:32:00,46.6,39.8,30.14,ENE,64,3.6,8.3,77,0.00,,OVC010,0.00,VWS V14.01,2013-04-17 14:32:00,
2013-04-17 09:37:00,46.8,39.9,30.14,ESE,108,3.1,11.0,77,0.00,,OVC010,0.00,VWS V14.01,2013-04-17 14:37:00,
2013-04-17 09:42:00,46.9,40.1,30.14,NE,38,3.1,7.6,77,0.00,,OVC010,0.00,VWS V14.01,2013-04-17 14:42:00,
2013-04-17 09:47:00,46.9,40.1,30.14,North,2,2.7,8.1,77,0.00,,OVC010,0.00,VWS V14.01,2013-04-17 14:47:00,
2013-04-17 09:52:00,46.9,40.1,30.14,ENE,57,4.9,8.7,77,0.00,,OVC010,0.00,VWS V14.01,2013-04-17 14:52:00,
2013-04-17 09:58:00,46.9,40.1,30.14,ENE,62,5.4,9.6,77,0.00,,OVC010,0.00,VWS V14.01,2013-04-17 14:58:00,
2013-04-17 10:03:00,46.9,40.1,30.14,East,84,3.6,7.6,77,0.00,,OVC010,0.00,VWS V14.01,2013-04-17 15:03:00,
2013-04-17 10:08:00,46.9,40.1,30.14,ENE,69,3.6,8.3,77,0.00,,OVC010,0.00,VWS V14.01,2013-04-17 15:08:00,
2013-04-17 10:13:00,47.1,40.3,30.14,ENE,59,6.3,8.7,77,0.00,,OVC010,0.00,VWS V14.01,2013-04-17 15:13:00,
2013-04-17 10:18:00,47.1,40.3,30.14,ENE,74,3.1,8.3,77,0.00,,OVC010,0.00,VWS V14.01,2013-04-17 15:18:00,
2013-04-17 10:23:00,47.3,40.5,30.14,ESE,113,7.6,10.5,77,0.00,,OVC008,0.00,VWS V14.01,2013-04-17 15:23:00,
2013-04-17 10:28:00,47.3,40.5,30.14,NE,48,8.1,9.2,77,0.00,,OVC008,0.00,VWS V14.01,2013-04-17 15:28:00,
2013-04-17 10:33:00,47.3,42.7,30.11,East,86,4.9,10.1,84,0.00,,OVC008,0.00,VWS V14.01,2013-04-17 15:33:00,
2013-04-17 10:38:00,47.3,42.7,30.11,East,79,3.1,11.0,84,0.00,,OVC008,0.00,VWS V14.01,2013-04-17 15:38:00,
2013-04-17 10:43:00,47.3,42.7,30.11,ENE,61,5.8,9.2,84,0.00,,OVC008,0.00,VWS V14.01,2013-04-17 15:43:00,
2013-04-17 10:48:00,47.5,42.9,30.11,East,87,7.2,9.2,84,0.00,,OVC008,0.00,VWS V14.01,2013-04-17 15:48:00,
2013-04-17 10:53:00,47.7,43.1,30.11,NE,43,4.9,11.0,84,0.00,,OVC008,0.00,VWS V14.01,2013-04-17 15:53:00,
2013-04-17 10:59:00,47.8,43.2,30.11,NNE,25,3.1,8.1,84,0.00,,OVC008,0.00,VWS V14.01,2013-04-17 15:59:00,
2013-04-17 11:04:00,48.2,45.7,30.11,East,82,6.3,8.7,91,0.00,,,0.00,VWS V14.01,2013-04-17 16:04:00,
2013-04-17 11:09:00,48.4,43.8,30.11,NE,42,4.0,8.3,84,0.00,,,0.00,VWS V14.01,2013-04-17 16:09:00,
2013-04-17 11:14:00,48.7,46.2,30.11,SE,144,4.0,5.8,91,0.00,,,0.00,VWS V14.01,2013-04-17 16:14:00,
2013-04-17 11:19:00,49.1,46.6,30.11,ENE,58,2.7,14.5,91,0.00,,,0.00,VWS V14.01,2013-04-17 16:19:00,
2013-04-17 11:24:00,49.3,46.8,30.11,NE,43,5.4,6.3,91,0.00,,,0.00,VWS V14.01,2013-04-17 16:24:00,
2013-04-17 11:29:00,49.6,47.1,30.11,East,95,10.1,10.1,91,0.00,,,0.00,VWS V14.01,2013-04-17 16:29:00,
2013-04-17 11:34:00,50.0,47.5,30.09,ENE,60,6.3,8.3,91,0.00,,,0.00,VWS V14.01,2013-04-17 16:34:00,
2013-04-17 11:39:00,50.2,47.7,30.09,ENE,66,8.3,8.3,91,0.00,,,0.00,VWS V14.01,2013-04-17 16:39:00,
2013-04-17 11:44:00,50.5,48.0,30.09,SE,128,4.9,8.1,91,0.00,,,0.00,VWS V14.01,2013-04-17 16:44:00,
2013-04-17 11:49:00,50.7,48.2,30.09,East,89,6.3,7.6,91,0.00,,,0.00,VWS V14.01,2013-04-17 16:49:00,
2013-04-17 11:54:00,51.1,48.5,30.09,NE,48,7.6,8.7,91,0.00,,,0.00,VWS V14.01,2013-04-17 16:54:00,
2013-04-17 12:00:00,51.4,48.9,30.09,ESE,107,3.6,8.7,91,0.00,,,0.00,VWS V14.01,2013-04-17 17:00:00,
2013-04-17 12:05:00,51.6,49.1,30.09,NE,46,2.7,6.7,91,0.00,,,0.00,VWS V14.01,2013-04-17 17:05:00,
2013-04-17 12:10:00,51.8,49.3,30.09,NE,53,5.8,6.3,91,0.00,,,0.00,VWS V14.01,2013-04-17 17:10:00,
2013-04-17 12:15:00,52.2,49.6,30.09,SE,140,6.3,6.3,91,0.00,,,0.00,VWS V14.01,2013-04-17 17:15:00,
2013-04-17 12:20:00,52.3,49.8,30.06,SE,136,3.6,6.3,91,0.00,,,0.00,VWS V14.01,2013-04-17 17:20:00,
2013-04-17 12:25:00,52.5,50.0,30.06,SE,128,0.0,5.4,91,0.00,,,0.00,VWS V14.01,2013-04-17 17:25:00,
2013-04-17 12:30:00,52.7,50.2,30.06,East,96,3.1,3.1,91,0.00,,,0.00,VWS V14.01,2013-04-17 17:30:00,
2013-04-17 12:35:00,52.5,50.0,30.06,ESE,102,3.6,4.0,91,0.00,,,0.00,VWS V14.01,2013-04-17 17:35:00,
2013-04-17 12:40:00,52.5,50.0,30.06,ESE,104,4.0,5.4,91,0.00,,,0.00,VWS V14.01,2013-04-17 17:40:00,
2013-04-17 12:45:00,52.7,50.2,30.06,ESE,112,5.4,5.4,91,0.00,,,0.00,VWS V14.01,2013-04-17 17:45:00,
2013-04-17 12:50:00,52.7,50.2,30.06,NNE,31,3.1,3.1,91,0.00,,,0.00,VWS V14.01,2013-04-17 17:50:00,
2013-04-17 12:55:00,52.9,51.3,30.06,NE,50,7.6,7.6,94,0.00,,,0.00,VWS V14.01,2013-04-17 17:55:00,
2013-04-17 13:00:00,52.9,51.3,30.06,ENE,72,4.0,4.0,94,0.00,,,0.00,VWS V14.01,2013-04-17 18:00:00,
2013-04-17 13:05:00,53.1,51.5,30.06,ESE,102,2.7,2.7,94,0.00,,,0.00,VWS V14.01,2013-04-17 18:05:00,
2013-04-17 13:10:00,53.2,51.7,30.06,East,94,8.3,9.2,94,0.00,,,0.00,VWS V14.01,2013-04-17 18:10:00,
2013-04-17 13:16:00,53.2,52.7,30.03,ENE,58,5.4,5.8,98,0.00,,,0.00,VWS V14.01,2013-04-17 18:16:00,
2013-04-17 13:21:00,53.4,52.9,30.03,ENE,69,4.0,4.0,98,0.00,,,0.00,VWS V14.01,2013-04-17 18:21:00,
2013-04-17 13:26:00,53.6,53.0,30.03,ENE,58,4.0,4.9,98,0.00,,,0.00,VWS V14.01,2013-04-17 18:26:00,
2013-04-17 13:31:00,53.8,53.8,30.03,ESE,121,4.0,7.6,100,0.00,,,0.00,VWS V14.01,2013-04-17 18:31:00,
2013-04-17 13:36:00,53.8,53.8,30.03,ESE,118,0.0,3.6,100,0.00,,,0.00,VWS V14.01,2013-04-17 18:36:00,
2013-04-17 13:41:00,54.0,54.0,30.03,ESE,123,0.0,3.6,100,0.00,,,0.00,VWS V14.01,2013-04-17 18:41:00,
2013-04-17 13:46:00,54.0,54.0,30.06,NNW,340,2.7,3.1,100,0.00,,,0.00,VWS V14.01,2013-04-17 18:46:00,
2013-04-17 13:51:00,54.0,54.0,30.06,North,357,6.3,12.3,100,0.00,,,0.00,VWS V14.01,2013-04-17 18:51:00,
2013-04-17 13:56:00,53.4,53.4,30.06,NNW,342,5.4,5.8,100,0.00,,,0.00,VWS V14.01,2013-04-17 18:56:00,
2013-04-17 14:02:00,52.9,52.9,30.09,NNE,16,7.6,7.6,100,0.00,,,0.00,VWS V14.01,2013-04-17 19:02:00,
2013-04-17 14:07:00,52.5,52.5,30.09,North,0,8.7,13.2,100,0.00,,,0.00,VWS V14.01,2013-04-17 19:07:00,
2013-04-17 14:12:00,52.2,52.2,30.09,North,7,8.7,9.2,100,0.00,,,0.00,VWS V14.01,2013-04-17 19:12:00,
2013-04-17 14:17:00,51.6,51.6,30.06,North,357,6.3,11.0,100,0.00,,,0.00,VWS V14.01,2013-04-17 19:17:00,
2013-04-17 14:22:00,50.9,50.9,30.06,NNE,14,5.8,11.4,100,0.00,,,0.00,VWS V14.01,2013-04-17 19:22:00,
2013-04-17 14:27:00,50.7,50.7,30.06,North,0,8.1,8.7,100,0.00,,,0.00,VWS V14.01,2013-04-17 19:27:00,
2013-04-17 14:32:00,50.7,50.7,30.06,NNE,21,6.3,8.3,100,0.00,,,0.00,VWS V14.01,2013-04-17 19:32:00,
2013-04-17 14:37:00,50.7,50.7,30.06,North,350,7.6,11.0,100,0.00,,,0.00,VWS V14.01,2013-04-17 19:37:00,
2013-04-17 14:42:00,50.4,50.4,30.06,NNW,345,7.6,8.3,100,0.00,,,0.00,VWS V14.01,2013-04-17 19:42:00,
2013-04-17 14:47:00,50.2,50.2,30.06,North,353,8.1,8.7,100,0.00,,,0.00,VWS V14.01,2013-04-17 19:47:00,
2013-04-17 14:52:00,50.0,50.0,30.06,North,349,4.0,13.6,100,0.00,,,0.00,VWS V14.01,2013-04-17 19:52:00,
2013-04-17 14:57:00,49.8,49.8,30.06,NNW,344,8.1,15.4,100,0.00,,,0.00,VWS V14.01,2013-04-17 19:57:00,
2013-04-17 15:02:00,49.3,49.3,30.09,NE,52,8.1,12.8,100,0.00,,,0.00,VWS V14.01,2013-04-17 20:02:00,
2013-04-17 15:08:00,48.7,48.7,30.09,North,357,8.3,15.0,100,0.00,,,0.00,VWS V14.01,2013-04-17 20:08:00,
2013-04-17 15:13:00,48.4,48.4,30.09,North,5,15.4,17.0,100,0.00,,,0.00,VWS V14.01,2013-04-17 20:13:00,
2013-04-17 15:18:00,47.8,47.8,30.09,North,353,10.5,20.6,100,0.00,,,0.00,VWS V14.01,2013-04-17 20:18:00,
2013-04-17 15:23:00,47.3,47.3,30.09,North,10,4.0,24.6,100,0.04,,,0.04,VWS V14.01,2013-04-17 20:23:00,
2013-04-17 15:28:00,47.1,47.1,30.09,NNE,29,10.5,13.2,100,0.04,,,0.04,VWS V14.01,2013-04-17 20:28:00,
2013-04-17 15:33:00,46.8,46.8,30.09,North,0,5.8,15.0,100,0.04,,,0.04,VWS V14.01,2013-04-17 20:33:00,
2013-04-17 15:38:00,46.4,46.4,30.09,NNW,332,14.5,14.5,100,0.04,,,0.04,VWS V14.01,2013-04-17 20:38:00,
2013-04-17 15:43:00,46.2,46.2,30.09,NNE,15,9.6,13.2,100,0.04,,,0.04,VWS V14.01,2013-04-17 20:43:00,
2013-04-17 15:48:00,46.0,46.0,30.09,NNW,332,8.1,13.2,100,0.04,,,0.04,VWS V14.01,2013-04-17 20:48:00,
2013-04-17 15:53:00,46.0,46.0,30.09,North,353,7.6,12.8,100,0.04,,,0.04,VWS V14.01,2013-04-17 20:53:00,
2013-04-17 15:58:00,46.0,46.0,30.09,ENE,71,6.3,10.5,100,0.04,,,0.04,VWS V14.01,2013-04-17 20:58:00,
2013-04-17 16:04:00,46.0,46.0,30.06,NNE,28,4.0,12.3,100,0.04,,,0.04,VWS V14.01,2013-04-17 21:04:00,
2013-04-17 16:09:00,46.0,46.0,30.06,NE,50,5.4,8.7,100,0.08,,,0.08,VWS V14.01,2013-04-17 21:09:00,
2013-04-17 16:14:00,46.2,46.2,30.06,NE,49,2.2,8.7,100,0.16,,,0.16,VWS V14.01,2013-04-17 21:14:00,
2013-04-17 16:19:00,46.2,46.2,30.03,NE,56,8.1,9.6,100,0.28,,,0.28,VWS V14.01,2013-04-17 21:19:00,
2013-04-17 16:24:00,46.4,46.4,30.03,NE,46,10.1,10.1,100,0.31,,OVC004,0.31,VWS V14.01,2013-04-17 21:24:00,
2013-04-17 16:29:00,46.6,46.6,30.03,North,8,3.6,8.1,100,0.28,,OVC004,0.31,VWS V14.01,2013-04-17 21:29:00,
2013-04-17 16:34:00,46.9,46.9,30.00,North,11,0.0,6.3,100,0.31,,OVC004,0.35,VWS V14.01,2013-04-17 21:34:00,
2013-04-17 16:39:00,47.1,47.1,30.00,NNE,15,2.7,6.3,100,0.31,,OVC004,0.35,VWS V14.01,2013-04-17 21:39:00,
2013-04-17 16:44:00,47.3,47.3,30.00,North,9,3.1,5.8,100,0.31,,OVC010,0.35,VWS V14.01,2013-04-17 21:44:00,
2013-04-17 16:49:00,47.3,47.3,30.03,NNW,337,3.6,7.6,100,0.31,,OVC010,0.35,VWS V14.01,2013-04-17 21:49:00,
2013-04-17 16:54:00,47.3,47.3,30.03,NNW,344,4.0,8.1,100,0.31,,OVC010,0.35,VWS V14.01,2013-04-17 21:54:00,
2013-04-17 16:59:00,47.3,47.3,30.03,ENE,62,3.6,8.1,100,0.31,,OVC010,0.35,VWS V14.01,2013-04-17 21:59:00,
2013-04-17 17:05:00,47.3,47.3,30.06,ESE,110,3.6,6.3,100,0.43,,OVC009,0.47,VWS V14.01,2013-04-17 22:05:00,
2013-04-17 17:10:00,47.3,47.3,30.06,ENE,72,8.1,11.9,100,0.67,,OVC009,0.71,VWS V14.01,2013-04-17 22:10:00,
2013-04-17 17:15:00,47.3,47.3,30.06,NE,45,6.7,10.5,100,0.67,,OVC009,0.79,VWS V14.01,2013-04-17 22:15:00,
2013-04-17 17:20:00,47.5,47.5,29.97,ENE,65,7.6,10.1,100,0.67,,OVC009,0.83,VWS V14.01,2013-04-17 22:20:00,
2013-04-17 17:25:00,47.7,47.7,29.97,NE,40,2.7,8.7,100,0.55,,OVC010,0.87,VWS V14.01,2013-04-17 22:25:00,
2013-04-17 17:30:00,47.8,47.8,29.97,SE,142,3.1,3.6,100,0.55,,OVC010,0.87,VWS V14.01,2013-04-17 22:30:00,
2013-04-17 17:35:00,48.2,48.2,30.00,SE,124,2.7,4.9,100,0.55,,OVC010,0.87,VWS V14.01,2013-04-17 22:35:00,
2013-04-17 17:40:00,48.6,48.6,30.00,East,93,4.0,4.0,100,0.55,,OVC010,0.91,VWS V14.01,2013-04-17 22:40:00,
2013-04-17 17:45:00,48.9,48.9,30.00,NE,39,2.7,5.8,100,0.55,,OVC010,0.91,VWS V14.01,2013-04-17 22:45:00,
2013-04-17 17:50:00,49.5,49.5,30.00,East,81,5.4,7.2,100,0.55,,OVC010,0.91,VWS V14.01,2013-04-17 22:50:00,
2013-04-17 17:55:00,50.0,50.0,30.00,ENE,63,4.0,4.0,100,0.55,,OVC010,0.91,VWS V14.01,2013-04-17 22:55:00,
2013-04-17 18:00:00,50.2,50.2,30.00,North,9,5.4,5.4,100,0.55,,OVC010,0.91,VWS V14.01,2013-04-17 23:00:00,
2013-04-17 18:05:00,50.4,50.4,29.97,NE,36,0.0,0.0,100,0.43,,OVC006,0.91,VWS V14.01,2013-04-17 23:05:00,
2013-04-17 18:10:00,50.5,50.5,29.97,NE,39,5.4,5.4,100,0.24,,OVC006,0.94,VWS V14.01,2013-04-17 23:10:00,
2013-04-17 18:15:00,50.5,50.5,29.97,NE,43,3.1,3.1,100,0.16,,OVC006,0.94,VWS V14.01,2013-04-17 23:15:00,
2013-04-17 18:20:00,50.5,50.5,29.97,NE,54,5.4,5.4,100,0.12,,OVC009,0.94,VWS V14.01,2013-04-17 23:20:00,
2013-04-17 18:25:00,50.5,50.5,29.97,NE,42,4.0,4.0,100,0.08,,OVC009,0.94,VWS V14.01,2013-04-17 23:25:00,
2013-04-17 18:30:00,50.5,50.5,29.97,NNE,25,0.0,2.2,100,0.12,,OVC009,0.98,VWS V14.01,2013-04-17 23:30:00,
2013-04-17 18:35:00,51.1,51.1,30.00,North,353,0.0,0.0,100,0.16,,OVC009,1.02,VWS V14.01,2013-04-17 23:35:00,
2013-04-17 18:40:00,51.3,51.3,30.00,North,353,5.4,5.4,100,0.12,,OVC011,1.02,VWS V14.01,2013-04-17 23:40:00,
2013-04-17 18:46:00,51.3,51.3,30.00,NNW,341,3.1,4.9,100,0.16,,OVC011,1.06,VWS V14.01,2013-04-17 23:46:00,
2013-04-17 18:51:00,51.3,51.3,30.00,North,0,2.7,7.6,100,0.28,,OVC011,1.18,VWS V14.01,2013-04-17 23:51:00,
2013-04-17 18:56:00,51.3,51.3,30.00,North,3,5.4,5.8,100,0.47,,OVC011,1.38,VWS V14.01,2013-04-17 23:56:00,
2013-04-17 19:01:00,51.3,51.3,29.97,NNE,24,3.6,4.9,100,0.59,,OVC011,1.50,VWS V14.01,2013-04-18 00:01:00,
2013-04-17 19:06:00,51.1,51.1,29.97,NE,48,7.6,8.3,100,0.71,,OVC011,1.61,VWS V14.01,2013-04-18 00:06:00,
2013-04-17 19:11:00,51.1,51.1,29.97,North,357,6.3,8.3,100,0.71,,OVC011,1.65,VWS V14.01,2013-04-18 00:11:00,
2013-04-17 19:16:00,50.9,50.9,29.94,ENE,75,4.9,6.3,100,0.71,,OVC011,1.65,VWS V14.01,2013-04-18 00:16:00,
2013-04-17 19:21:00,50.9,50.9,29.94,North,3,4.9,4.9,100,0.71,,OVC013,1.65,VWS V14.01,2013-04-18 00:21:00,
2013-04-17 19:26:00,51.1,51.1,29.94,North,353,3.1,5.8,100,0.71,,OVC013,1.65,VWS V14.01,2013-04-18 00:26:00,
2013-04-17 19:31:00,51.1,51.1,29.94,NNE,17,3.1,3.1,100,0.71,,OVC013,1.65,VWS V14.01,2013-04-18 00:31:00,
2013-04-17 19:36:00,51.1,51.1,29.94,NNE,31,2.7,5.8,100,0.63,,OVC013,1.65,VWS V14.01,2013-04-18 00:36:00,
2013-04-17 19:41:00,51.3,51.3,29.94,NE,39,2.7,4.0,100,0.63,,OVC013,1.65,VWS V14.01,2013-04-18 00:41:00,
2013-04-17 19:47:00,51.3,51.3,29.91,NE,46,2.7,8.1,100,0.59,,OVC014,1.65,VWS V14.01,2013-04-18 00:47:00,
2013-04-17 19:52:00,51.4,51.4,29.91,ENE,70,0.0,6.3,100,0.55,,OVC014,1.65,VWS V14.01,2013-04-18 00:52:00,
2013-04-17 19:57:00,51.6,51.6,29.91,ENE,61,3.1,7.2,100,0.35,,OVC014,1.69,VWS V14.01,2013-04-18 00:57:00,
2013-04-17 20:02:00,51.8,51.8,29.91,East,79,2.7,9.6,100,0.24,,OVC014,1.69,VWS V14.01,2013-04-18 01:02:00,
2013-04-17 20:07:00,52.2,52.2,29.91,SE,145,4.0,7.6,100,0.08,,OVC014,1.69,VWS V14.01,2013-04-18 01:07:00,
2013-04-17 20:12:00,52.3,52.3,29.91,WNW,296,4.9,8.1,100,0.04,,OVC014,1.69,VWS V14.01,2013-04-18 01:12:00,
2013-04-17 20:17:00,52.5,52.5,29.97,WSW,246,8.3,19.2,100,0.04,,OVC014,1.69,VWS V14.01,2013-04-18 01:17:00,
2013-04-17 20:22:00,53.1,53.1,29.97,NNE,33,5.4,7.6,100,0.08,,OVC014,1.73,VWS V14.01,2013-04-18 01:22:00,
2013-04-17 20:27:00,53.6,53.6,29.97,NE,35,3.1,5.4,100,0.12,,OVC014,1.77,VWS V14.01,2013-04-18 01:27:00,
2013-04-17 20:32:00,54.3,54.3,29.94,NNW,344,6.3,6.3,100,0.16,,OVC014,1.81,VWS V14.01,2013-04-18 01:32:00,
2013-04-17 20:37:00,54.5,54.5,29.94,NE,37,4.0,5.4,100,0.16,,OVC014,1.81,VWS V14.01,2013-04-18 01:37:00,
2013-04-17 20:43:00,54.9,54.9,29.94,NE,51,3.6,8.1,100,0.16,,OVC012,1.81,VWS V14.01,2013-04-18 01:43:00,
2013-04-17 20:48:00,56.3,56.3,29.94,NNE,29,5.4,7.6,100,0.20,,OVC012,1.85,VWS V14.01,2013-04-18 01:48:00,
2013-04-17 20:53:00,56.5,56.5,29.94,ENE,75,5.8,8.7,100,0.20,,OVC012,1.85,VWS V14.01,2013-04-18 01:53:00,
2013-04-17 20:58:00,56.5,56.5,29.94,NE,46,4.9,7.6,100,0.16,,OVC012,1.85,VWS V14.01,2013-04-18 01:58:00,
2013-04-17 21:03:00,56.5,56.5,29.94,NE,46,4.9,7.6,100,0.16,,BKN017,1.85,VWS V14.01,2013-04-18 02:03:00,
2013-04-17 21:08:00,56.3,56.3,29.94,NE,50,3.6,5.8,100,0.24,,BKN017,1.93,VWS V14.01,2013-04-18 02:08:00,
2013-04-17 21:13:00,56.1,56.1,29.94,ENE,58,5.8,6.3,100,0.24,,BKN017,1.93,VWS V14.01,2013-04-18 02:13:00,
2013-04-17 21:18:00,55.9,55.9,29.91,NE,42,4.9,8.7,100,0.24,,SCT040,1.93,VWS V14.01,2013-04-18 02:18:00,
2013-04-17 21:23:00,55.9,55.9,29.91,ENE,67,5.8,10.5,100,0.24,,SCT040,1.93,VWS V14.01,2013-04-18 02:23:00,
2013-04-17 21:28:00,55.9,55.9,29.91,NE,56,3.1,12.3,100,0.20,,SCT040,1.93,VWS V14.01,2013-04-18 02:28:00,
2013-04-17 21:33:00,55.9,55.9,29.88,NNE,18,6.3,10.1,100,0.16,,SCT040,1.93,VWS V14.01,2013-04-18 02:33:00,
2013-04-17 21:38:00,55.9,55.9,29.88,ENE,74,5.8,11.0,100,0.12,,SCT040,1.93,VWS V14.01,2013-04-18 02:38:00,
2013-04-17 21:43:00,56.3,56.3,29.88,East,82,7.6,12.8,100,0.24,,SCT047,2.05,VWS V14.01,2013-04-18 02:43:00,
2013-04-17 21:48:00,56.3,56.3,29.88,ENE,71,6.3,12.8,100,0.24,,SCT047,2.09,VWS V14.01,2013-04-18 02:48:00,
2013-04-17 21:53:00,56.3,56.3,29.88,SE,127,4.9,8.3,100,0.24,,SCT047,2.09,VWS V14.01,2013-04-18 02:53:00,
2013-04-17 21:58:00,56.1,56.1,29.88,ENE,57,6.3,8.1,100,0.24,,SCT047,2.09,VWS V14.01,2013-04-18 02:58:00,
2013-04-17 22:04:00,56.1,56.1,29.85,SE,145,4.0,10.1,100,0.28,,SCT110,2.13,VWS V14.01,2013-04-18 03:04:00,
2013-04-17 22:09:00,56.1,56.1,29.85,WNW,286,3.1,7.2,100,0.35,,SCT110,2.20,VWS V14.01,2013-04-18 03:09:00,
2013-04-17 22:14:00,56.5,56.5,29.85,South,185,8.1,10.5,100,0.31,,SCT110,2.24,VWS V14.01,2013-04-18 03:14:00,
2013-04-17 22:19:00,57.2,57.2,29.91,NE,44,3.6,11.0,100,0.35,,SCT110,2.28,VWS V14.01,2013-04-18 03:19:00,
2013-04-17 22:24:00,57.2,57.2,29.91,NE,45,4.0,12.8,100,0.63,,BKN120,2.56,VWS V14.01,2013-04-18 03:24:00,
2013-04-17 22:29:00,57.6,57.6,29.91,South,176,8.1,13.2,100,0.79,,BKN120,2.72,VWS V14.01,2013-04-18 03:29:00,
2013-04-17 22:34:00,58.5,58.5,30.00,West,274,8.7,12.3,100,1.02,,BKN120,2.95,VWS V14.01,2013-04-18 03:34:00,
2013-04-17 22:39:00,59.0,59.0,30.00,WNW,303,5.8,6.3,100,1.10,,BKN120,3.03,VWS V14.01,2013-04-18 03:39:00,
2013-04-17 22:44:00,59.0,59.0,30.00,NW,311,3.1,4.9,100,1.10,,OVC100,3.07,VWS V14.01,2013-04-18 03:44:00,
2013-04-17 22:49:00,59.0,59.0,29.91,NNE,31,6.7,6.7,100,1.02,,OVC100,3.07,VWS V14.01,2013-04-18 03:49:00,
2013-04-17 22:54:00,59.0,59.0,29.91,NNE,31,5.4,8.1,100,1.02,,OVC100,3.11,VWS V14.01,2013-04-18 03:54:00,
2013-04-17 22:59:00,59.0,59.0,29.91,NNE,23,4.0,5.8,100,1.02,,OVC100,3.11,VWS V14.01,2013-04-18 03:59:00,
2013-04-17 23:01:00,59.0,59.0,29.85,NE,46,4.0,6.3,100,0.98,,,3.11,VWS V14.01,2013-04-18 04:01:00,
2013-04-17 23:02:00,58.8,58.8,29.85,ESE,105,0.0,6.3,100,0.98,,,3.11,VWS V14.01,2013-04-18 04:02:00,
2013-04-17 23:07:00,58.8,58.8,29.85,ENE,61,4.0,4.0,100,0.94,,,3.11,VWS V14.01,2013-04-18 04:07:00,
2013-04-17 23:12:00,58.8,58.8,29.85,NE,53,2.7,5.4,100,0.91,,,3.11,VWS V14.01,2013-04-18 04:12:00,
2013-04-17 23:17:00,58.5,58.5,29.85,NNE,30,2.2,7.2,100,0.83,,,3.11,VWS V14.01,2013-04-18 04:17:00,
2013-04-17 23:22:00,58.5,58.5,29.85,NNE,30,5.8,6.3,100,0.79,,,3.15,VWS V14.01,2013-04-18 04:22:00,
2013-04-17 23:27:00,58.3,58.3,29.85,NE,49,0.0,6.3,100,0.59,,,3.15,VWS V14.01,2013-04-18 04:27:00,
2013-04-17 23:32:00,58.5,58.5,29.82,NNE,28,2.2,6.3,100,0.43,,,3.15,VWS V14.01,2013-04-18 04:32:00,
2013-04-17 23:37:00,58.5,58.5,29.82,NE,46,8.1,8.1,100,0.16,,,3.15,VWS V14.01,2013-04-18 04:37:00,
2013-04-17 23:42:00,58.5,58.5,29.82,ENE,63,2.7,8.3,100,0.16,,,3.19,VWS V14.01,2013-04-18 04:42:00,
2013-04-17 23:48:00,58.5,58.5,29.79,ESE,118,3.6,8.7,100,0.12,,,3.19,VWS V14.01,2013-04-18 04:48:00,
2013-04-17 23:53:00,58.3,58.3,29.79,NE,55,7.6,7.6,100,0.16,,,3.23,VWS V14.01,2013-04-18 04:53:00,
2013-04-17 23:58:00,58.3,58.3,29.79,East,90,9.2,10.1,100,0.16,,,3.27,VWS V14.01,2013-04-18 04:58:00,